Regional Weather Roundup
Issued by NWS Northern Indiana

Home | Current Version | Previous Version | Graphics & Text | Print | Product List | Glossary On
Versions: 1 2 3 4 5 6 7 8 9 10 11 12 13 14 15 16 17 18 19 20 21 22 23 24 25 26 27 28 29 30 31 32 33 34 35 36 37 38 39 40 41 42 43 44 45 46 47 48 49 50
000
ASUS43 KIWX 221410
RWRIWX

KIWX WEATHER ROUNDUP
NATIONAL WEATHER SERVICE NORTHERN INDIANA
900 AM EST MON DEC 22 2014

NOTE: "FAIR" INDICATES FEW OR NO CLOUDS BELOW 12,000 FEET WITH NO
SIGNIFICANT WEATHER AND/OR OBSTRUCTIONS TO VISIBILITY.

* THESE STATIONS ARE NOT UNDER NWS QUALITY CONTROL. THEY ALSO MAY NOT
  REPORT WEATHER SUCH AS PRECIPITATION OR FOG.

INZ001>027-221500-
NORTHERN INDIANA

CITY           SKY/WX    TMP DP  RH WIND       PRES   REMARKS
GARY*          CLOUDY    34  25  69 SE9       29.94F HAZE    WCI  26
VALPARAISO     CLOUDY    30  27  88 E8        29.95F FOG     WCI  22
MICHIGAN CITY* CLOUDY    32  23  69 E3        29.97S
LAPORTE*       CLOUDY    32  29  90 E6        29.96F FOG     WCI  26
KNOX*          CLOUDY    31  25  77 SE7       29.95F WCI  24
SOUTH BEND     CLOUDY    30  25  81 E12       29.98F HAZE    WCI  20
ELKHART*       CLOUDY    28  23  80 SE8       29.99F HAZE    WCI  20
GOSHEN         CLOUDY    29  24  82 SE9       29.98F HAZE    WCI  20
MONTICELLO*    CLOUDY    31  28  88 E6        29.93F WCI  26
LOGANSPORT*    CLOUDY    32  28  86 E9        29.96F FOG     WCI  24
ROCHESTER*     MOCLDY    32  30  93 E7        29.98S FOG     WCI  26
WARSAW*        CLOUDY    30  27  86 SE7       29.99S FOG     WCI  23
ANGOLA*        PTCLDY    25  21  86 SE8       30.00F WCI  16
FORT WAYNE     CLOUDY    27  24  89 E7        30.01F FOG     WCI  19
HUNTINGTON*    CLOUDY    28  26  92 E7        29.99F FOG     WCI  21
PERU/GRISSOM   CLOUDY    31  31 100 E10       29.96F WCI  22
MARION*        CLOUDY    32  28  85 SE9       29.98F WCI  24

$$
INZ028>050-221500-
CENTRAL INDIANA

CITY           SKY/WX    TMP DP  RH WIND       PRES   REMARKS
LAFAYETTE      CLOUDY    33  28  81 E9        29.92F WCI  25
KOKOMO*        CLOUDY    30  27  86 SE9       29.96F WCI  22
MUNCIE*        CLOUDY    34  28  79 SE8       29.98F WCI  27
INDIANAPOLIS   CLOUDY    33  28  81 E10       29.93F WCI  25

$$
MIZ043>046-050>051-056>058-064>065-071>073-077>080-221500-
SOUTHWEST LOWER MICHIGAN

CITY           SKY/WX    TMP DP  RH WIND       PRES   REMARKS
BATTLE CREEK   CLEAR     27  22  81 E6        30.02F HAZE    WCI  20
BENTON HARBOR  CLOUDY    29  25  85 SE9       29.97F FOG     WCI  20
COLDWATER*     CLEAR     27  23  86 E8        30.01F FOG     WCI  18
HILLSDALE*     CLEAR     26  24  90 E8        30.02F FOG     WCI  18
HOLLAND        CLEAR     30  23  75 E9        29.99F WCI  22
GRAND RAPIDS   PTCLDY    27  22  81 SE12      30.03F HAZE    WCI  17
KALAMAZOO      CLEAR     27  22  81 E7        30.00F HAZE    WCI  19
STURGIS*       MOCLDY    27  25  93 E10       29.99F FOG     WCI  17
THREE RIVERS*  MOCLDY    28  24  86 E8        30.01F FOG     WCI  19

$$
OHZ001>008-015>018-024>025-221500-
NORTHWEST OHIO

CITY           SKY/WX    TMP DP  RH WIND       PRES   REMARKS
WAUSEON*       FAIR      25  23  93 E6        30.05F FOG     WCI  18
DEFIANCE       MOCLDY    26  22  84 E7        30.05F FOG     WCI  18
FINDLAY        MOCLDY    27  22  81 E8        30.04F HAZE    WCI  19
TOLEDO EXPRESS CLEAR     25  22  88 E5        30.06F FOG     WCI  19
TOLEDO METCALF CLEAR     27  21  78 E7        30.08F HAZE    WCI  19
LIMA           CLOUDY    30  24  78 SE9       30.02F HAZE    WCI  22

$$
AND FOR LAKE MICHIGAN COASTAL AND OPEN LAKE BUOY OBSERVATIONS

STATION/POSITION TEMP    WIND        PRES    VSBY  WAVE
                 AIR SEA DIR/SP/G                  HT/PER
                 (F)     (DEG/KT/KT) (MB)    (MI)  (FT/S)
CALUMET HARBOR    32     140/  7/ 10 1012.7F
SAINT JOSEPH      30     110/  2/  6 1015.2S

$$
&&


USA.gov is the U.S. government's official web portal to all federal, state and local government web resources and services.